Regional Weather Roundup
Issued by NWS

Home | Current Version | Previous Version | Graphics & Text | Print | Product List | Glossary Off
Versions: 1 2 3 4 5 6 7 8 9 10 11 12 13 14 15 16 17 18 19 20 21 22 23 24 25 26 27

000
ASUS45 KBOU 152210
RWRCO

WEATHER ROUNDUP FOR COLORADO
NATIONAL WEATHER SERVICE DENVER/BOULDER CO
300 PM MST FRI DEC 15 2017

NOTE: "FAIR" INDICATES FEW OR NO CLOUDS BELOW 12000 FEET WITH NO
SIGNIFICANT WEATHER AND/OR OBSTRUCTIONS TO VISIBILITY.

COZ001>005-013-030-031-152300-
...NORTHWEST COLORADO...

CITY           SKY/WX    TMP DP  RH WIND       PRES   REMARKS
CRAIG          FAIR      39  12  33 NE7       30.15F
HAYDEN         FAIR      35  16  45 S3        30.16F
MEEKER         FAIR      47   5  18 S9        30.14F
RABBIT EARS PA FAIR      30   1  29 W9        30.17S WCI  22
STEAMBOAT SPGS FAIR      36  17  45 CALM      30.15S
WALDEN         FAIR      37   5  25 S12G17    30.13F
$$

COZ006>008-011-152300-
...WEST CENTRAL VALLEYS...

CITY           SKY/WX    TMP DP  RH WIND       PRES   REMARKS
GRAND JUNCTION FAIR      45  11  25 W6        30.21F
MONTROSE       FAIR      41   8  25 CALM      30.21F
EAGLE          FAIR      36   9  32 CALM      30.20F
RIFLE          FAIR      43   5  20 CALM      30.20F
DELTA          FAIR      46   6  19 W6        30.20F
NUCLA          FAIR      45   0  15 CALM      30.23F
$$

COZ017>023-064>068-152300-
...SOUTHWEST COLORADO...

CITY           SKY/WX    TMP DP  RH WIND       PRES   REMARKS
DURANGO        FAIR      44  18  35 CALM      30.18F
CORTEZ         FAIR      44  11  26 SW10      30.19F
PAGOSA SPRINGS FAIR      43   3  19 CALM      30.19F
TELLURIDE      FAIR      44 -11   9 W12G17    30.22S
WOLF CREEK PAS FAIR      32   3  29 W5        30.30F WCI  27
$$

COZ009-010-012-014-032>034-037-058>063-152300-
...CENTRAL COLORADO...

CITY           SKY/WX    TMP DP  RH WIND       PRES   REMARKS
ASPEN          FAIR      38  10  31 NW9       30.16F
BUENA VISTA    FAIR      45  -1  14 CALM      30.11F
COPPER MTN     NOT AVBL
BERTHOUD PASS  FAIR      18   5  57 NW25G36   30.17F WCI  -1
COTTONWOOD PAS FAIR      45  -4  13 W3        30.15F
GUNNISON       FAIR      40   5  23 CALM      30.19F
KREMMLING      FAIR      34  14  44 CALM      30.19F
LEADVILLE      FAIR      39  -5  15 N8        30.16S
MONARCH PASS   FAIR      27  -2  28 SW18G25   30.33F WCI  13
SALIDA         FAIR      49   0  13 SW12      30.17S
SUNLIGHT       FAIR      32   1  27 SW10G17   30.26F WCI  24
WILKERSON PASS FAIR      34   1  25 W9        30.19S WCI  26
$$

COZ069>075-152300-
...SAN LUIS VALLEY/SANGRE DE CRISTO MOUNTAINS...

CITY           SKY/WX    TMP DP  RH WIND       PRES   REMARKS
ALAMOSA        FAIR      37  10  32 SW3       30.18F
DEL NORTE      FAIR      36  12  38 E6        30.19F
LA VETA PASS   FAIR      32   1  27 SW28G35     N/A  WCI  18
SAGUACHE       FAIR      36  10  35 SE7       30.19F
$$

COZ035-036-038>040-152300-
...NORTHERN COLORADO FRONT RANGE...

CITY           SKY/WX    TMP DP  RH WIND       PRES   REMARKS
DENVER INTL AP FAIR      62   3   9 W9        29.90S
DMNS CITY PARK NOT AVBL
AURORA         MOSUNNY   62   2   9 W6        29.92S
FRONT RANGE AP MOSUNNY   64   7  10 W9G16     29.92S
ERIE MUNI ARPT FAIR      62   0   8 W14       29.93F
BOULDER MUN AP FAIR      61   9  12 SW10      29.89S
CENTENNIAL     FAIR      60  10  14 W9        29.92F
BROOMFIELD     MOSUNNY   63   7  11 W20       29.92S
FORT COLLINS   FAIR      57  21  24 E5        29.89S
LONGMONT       FAIR      65  12  12 CALM      29.89S
$$

COZ041-046-047-076>085-087-088-152300-
...PIKES PEAK/PALMER DIVIDE AND SOUTHERN FOOTHILLS...

CITY           SKY/WX    TMP DP  RH WIND       PRES   REMARKS
COLO. SPRINGS  FAIR      57   4  12 S9        29.97F
A. F. ACADEMY  FAIR      56   0  10 S8        29.97F
SCHRIEVER AFB  FAIR      55   2  11 S9        29.97F
CHEYENNE MTN   FAIR      51  12  20 S10       29.93F
ELLICOTT         N/A    N/A N/A N/A SW13      29.95F
FALCON         FAIR      55  -4   9 S10       30.00F
FORT CARSON    FAIR      57  11  16 S7        29.94F
LIMON          FAIR      59   8  13 SW8       29.92F
MONUMENT HILL  FAIR      54   9  16 W7        30.00S
CANON CITY     FAIR      63   5  10 W22       29.94F
WALSENBURG     FAIR      57   9  14 W15G24    30.01F
TRINIDAD       FAIR      61   7  11 NE6       30.01S
$$

COZ042>045-048>051-090-091-152300-
...NORTHEAST COLORADO...

CITY           SKY/WX    TMP DP  RH WIND       PRES   REMARKS
GREELEY ARPT   FAIR      54  21  27 E5        29.89
AKRON          FAIR      58   9  14 SW10      29.89F
BURLINGTON     FAIR      58   2  10 SW17      29.92F
WRAY           FAIR      63   5  10 NW12      29.87F
YUMA           FAIR      59   7  12 W8        29.89R
STERLING       FAIR      55  19  24 S12       29.86F
HOLYOKE        FAIR      61  10  13 W12       29.86F
FORT MORGAN    FAIR      56  19  23 CALM      29.89F
$$

COZ086-089-092>099-152300-
...SOUTHEAST COLORADO...

CITY           SKY/WX    TMP DP  RH WIND       PRES   REMARKS
PUEBLO         FAIR      65   4   9 SW9       29.92F
LA JUNTA       FAIR      62   9  12 W12       29.94F
LAMAR          FAIR      60  10  14 S10       29.93F
SPRINGFIELD      N/A     56   6  13 SW10      29.98F
$$




USA.gov is the U.S. government's official web portal to all federal, state and local government web resources and services.